Notices

What's New in latest Release from April 7th, 2021:

- Updated Glossary, including Speed of Maximum Gust, and Total Hourly Precipitation

- Updated national and regional climate services offices contacts and prices information

- Addition of station inventory lists for 1981-2010, 1971-2000, and 1961-1990 Normals.

If you haven't already, please take our survey and provide feedback about our website: https://eccc.sondage-survey.ca/f/LanguageSelection.aspx?s=442ca660-fcf1-47c0-95a9-59707d6fd709

Hourly Data Report for February 22, 2021

OTTAWA INTL A
ONTARIO
Current Station Operator: NAVCAN

45°19'00.000" N
75°40'00.000" W
114.90 m
6106001
71628
YOW

Download Data

Hourly Data (February 2021)
Hourly Data Report for February 22, 2021
TIME
LST
Temp Definition
°C
Dew Point Definition
°C
Rel Hum Definition
%
Precip. Amount Definition
mm

Wind Dir Definition
10's deg

Wind Spd Definition
km/h
Visibility Definition
km
Stn Press Definition
kPa
Hmdx Definition


Wind Chill Definition


Weather Definition


00:00 -7.6 -8.8 91   15 9 24.1 101.04   -12 LegendNANA
01:00 -8.1 -9.6 89   10 10 24.1 100.98   -13 Cloudy
02:00 -7.7 -10.2 82   10 13 24.1 100.83   -13 LegendNANA
03:00 -8.0 -11.5 76   10 13 24.1 100.70   -14 LegendNANA
04:00 -8.3 -11.3 79   6 13 24.1 100.53   -14 Cloudy
05:00 -7.9 -12.2 72   7 16 24.1 100.38   -14 LegendNANA
06:00 -7.3 -11.8 71   8 14 16.1 100.31   -13 Snow
07:00 -7.0 -11.3 71   9 17 24.1 100.13   -13 Cloudy
08:00 -6.3 -10.1 75   10 19 24.1 99.95   -13 LegendNANA
09:00 -4.6 -8.0 77   11 16 16.1 99.82   -10 LegendNANA
10:00 -4.0 -6.0 86   11 21 16.1 99.61   -10 Snow
11:00 -3.8 -5.2 90   11 16 6.4 99.44   -9 Snow
12:00 -3.7 -4.9 91   11 20 2.4 99.30   -10 Snow
13:00 -3.2 -4.6 90   10 21 3.2 99.15   -9 Snow
14:00 -2.6 -3.7 92   11 18 4.8 98.99   -8 Snow
15:00 -1.6 -3.2 89   13 14 4.8 98.90   -6 Snow
16:00 -1.9 -2.7 94   10 14 3.2 98.81   -7 Snow
17:00 -1.6 -2.3 95   12 11 1.6 98.74   -5 Snow
18:00 -1.6 -2.2 96   10 11 6.4 98.69   -5 Snow
19:00 -1.5 -2.0 97   11 10 6.4 98.67   -5 Snow
20:00 -1.2 -1.7 96   12 6 3.2 98.63   -3 Snow
21:00 -0.7 -1.2 97   19 5 11.3 98.61   -2 LegendNANA
22:00 0.0 -0.4 97   22 9 3.2 98.62   -3 Snow
23:00 0.6 0.1 96   24 12 11.3 98.62     Snow

Notes on Data Quality.

Legend

  • E = Estimated
  • M = Missing
  • NA = Not Available*
  • [empty] = Indicates an unobserved value
Date modified: